Погода в Приволжском

Россия / Республика Татарстан     54°59′08″N   49°04′49″E
темп.,
°C
ветер,
м/с
пор.,
м/с
влажн.,
%
обл.,
%
осадки,
мм/ч
давл.,
гПа
погр.,
м
29 июня, ср
ср2900:00+12ссв68655 0.0 1019749
03:00+11с79705 0.0 1019571
06:00+10ссв7107693 0.0 1020638
09:00+13с57635 0.0 10201040
12:00+16с68538 0.0 10181718
15:00+18с575548 0.0 1017452
18:00+18ссз46646 0.0 1016149
21:00+16сз47680 0.0 1016194
30 июня, чт
чт3000:00+14сз56650 0.0 1015149
03:00+14зсз71070100 0.0 1014226
06:00+14зсз71069100 0.0 1013259
09:00+16сз6864100 0.0 1012547
12:00+18сз685749 0.0 1011493
15:00+18сз5859100 0.0 1010244
18:00+16с101168100 0.1 1010454
21:00+12с7980100 0.7 1011675
1 июля, пт
пт100:00+10с810826 0.0 1012749
03:00+8с788750 0.1 1012468
06:00+8ссз5689100 0.1 1011521
09:00+10всв5679100 0.2 1012868
12:00+13св7977100 0.3 1013971
15:00+15св10117792 0.4 10141008
18:00+16св9137594 0.0 10131163
21:00+15св1014825 1.6 1014878
2 июля, сб
сб200:00+15св912830 0.1 1014558
03:00+14ссв811834 0.1 1015454
06:00+14св711785 0.0 1015449
09:00+16св79695 0.0 1015547
12:00+18св68675 0.0 1014562
15:00+18всв4664100 0.0 1014319
18:00+19ссв226789 0.0 101346
21:00+18с337222 0.0 101339
3 июля, вс
вс300:00+17с2276100 0.0 101248
03:00+17сз3469100 0.0 1011110
06:00+17с347299 0.0 1011218
09:00+17ссв6772100 0.0 1011517
12:00+19ссв576998 0.1 1011364
15:00+18с7107398 0.1 1011585
18:00+18с61071100 0.0 1011344
21:00+17ссз611745 0.0 1012340